Regional Weather Roundup
Issued by NWS Wakefield, VA

Home | Current Version | Previous Version | Text Only | Print | Product List | Glossary On
Versions: 1 2 3 4 5 6 7 8 9 10 11 12 13 14 15 16 17 18 19 20 21 22 23 24 25 26 27 28 29 30 31 32 33 34 35 36 37 38 39 40 41 42 43 44 45 46 47 48 49
000
ASUS41 KAKQ 251410
RWRAKQ

REGIONAL WEATHER ROUNDUP
NATIONAL WEATHER SERVICE WAKEFIELD VA
900 AM EST SUN JAN 25 2015

Note: "fair" indicates few or no clouds below 12,000 feet with no
significant weather and/or obstructions to visibility. * = Denotes
station may not report precipitation (e.g., rain,snow,etc.),
thunder or fog.

VAZ042-051-052>054-056-251500-
NORTHERN VIRGINIA

CITY           SKY/WX    TMP DP  RH WIND       PRES   REMARKS
WASH NATIONAL  PTSUNNY   42  27  55 W7        29.84S
DULLES         CLOUDY    37  27  67 S7        29.84R
FORT BELVOIR   PTSUNNY   40  27  61 W6        29.85S
QUANTICO       CLOUDY    40  28  62 CALM      29.87R
FREDERICKSBRG* CLOUDY    37  30  78 CALM      29.86S
STAFFORD*      CLOUDY    36  27  69 CALM      29.89S
WARRENTON      CLOUDY    35  33  92 CALM      29.84S
CULPEPER*      PTSUNNY   37  30  75 CALM      29.84F
MANASSAS*      CLOUDY    36  30  80 CALM      29.86R
LEESBURG*      CLOUDY    37  32  81 SW8       29.83S
WINCHESTER     CLOUDY    41  27  56 SW6       29.81R
FRONT ROYAL*   CLOUDY    37  28  70 S5        29.81S
LURAY*         CLOUDY    37  32  81 SW6       29.83R
$$

VAZ048-049-060>072-079>083-251500-
CENTRAL AND SOUTH CENTRAL VIRGINIA

CITY           SKY/WX    TMP DP  RH WIND       PRES   REMARKS
RICHMOND       CLOUDY    39  30  70 SW6       29.89R
CHESTERFIELD*  FAIR      36  21  55 SW3       29.90R
PETERSBURG*    CLOUDY    39  31  71 SW6       29.91R
HANOVER        CLOUDY    34  29  82 S3        29.89R
TAPPAHANNOCK*  CLOUDY    36  26  69 SW6       29.89R
QUINTON*       FAIR      35  29  78 CALM      29.89R
CHARLOTTSVILLE PTSUNNY   39  26  59 VRB3      29.84R
GORDONSVILLE*  FAIR      33  28  82 W3        29.85R
ORANGE*        PTSUNNY   34  32  93 CALM      29.87R
LOUISA*        CLOUDY    36  28  75 SW3       29.84S
BUMPASS*       FAIR      34  28  79 CALM      29.85S
FARMVILLE*     CLOUDY    35  32  88 S5        29.88R
CREWE*         FAIR      37  29  72 SW3       29.90R
FORT PICKETT*  FAIR      37  30  75 SW8       29.91R
CHASE CITY*    FAIR      38  32  79 S3        29.92R
CLARKSVILLE*   FAIR      36  30  80 CALM      29.92R
SOUTH HILL*    MOSUNNY   37  30  75 SW5       29.98R
LAWRENCEVILLE* FAIR      36  31  82 SW6       29.92R
EMPORIA*       MOSUNNY   36  30  80 CALM      29.95R
$$

VAZ088>098-251500-
SOUTHEAST VIRGINIA

CITY           SKY/WX    TMP DP  RH WIND       PRES   REMARKS
NORFOLK        SUNNY     39  30  70 SW10      29.91R
VIRGINIA BEACH MOSUNNY   39  30  70 SW7       29.92R
NORFOLK NAVAL  MOSUNNY   42  30  62 S6        29.93R
WEST POINT*    PTSUNNY   40  31  71 S3        29.91R
SALUDA*        FAIR      37  29  72 SW3       29.88R
NEWPORT NEWS   MOSUNNY   41  31  67 SW7       29.91R
LANGLEY AFB    MOSUNNY   40  30  69 SW8       29.91R
FORT EUSTIS    PTSUNNY   39  31  73 W3        29.90R
WILLIAMSBURG*    N/A     39  34  81 W6        29.92R
HR EXEC AP*    FAIR      37  30  75 SW3       29.95R
FRANKLIN*      MOSUNNY   36  30  78 SW3       29.94R
WAKEFIELD      MOSUNNY   38  29  70 SW6       29.92R
$$

VAZ020-022-025-037-045-251500-
WEST CENTRAL AND SOUTHWEST VIRGINIA

CITY           SKY/WX    TMP DP  RH WIND       PRES   REMARKS
STAUNTON*      CLOUDY    37  28  68 SW8       29.86R
WAYNESBORO*    PTSUNNY   35  27  73 SW6       29.84R
HOT SPRINGS VA FOG       29  29 100 W10       29.74R VSB<1/4 WCI  20
LYNCHBURG      MOSUNNY   36  28  73 SW7       29.88R
DANVILLE       PTSUNNY   36  28  73 CALM      29.91S
SOUTH BOSTON*  FAIR      37  29  73 CALM      29.92R
MARTINSVILLE   PTSUNNY   36  31  83 CALM      29.92S
ROANOKE        PTSUNNY   38  28  67 W8        29.88S
BLACKSBURG     SUNNY     31  27  85 NW6       29.88F
DUBLIN*        MOSUNNY   33  31  89 W9        29.86S
MARION*        PTSUNNY   32  28  85 W5        29.88S
HILLSVILLE*    PTSUNNY   31  28  88 W5        29.83S
RICHLANDS*     FAIR      30  26  85 CALM      29.82F
WISE*          PTSUNNY   32  32 100 SW8       29.82S
ABINGDON*      PTSUNNY   32  30  92 CALM      29.86S
$$

MDZ021>025-VAZ099-100-251500-
SOUTHERN MARYLAND AND THE DELMARVA PENINSULA

CITY           SKY/WX    TMP DP  RH WIND       PRES   REMARKS
PATUXENT RIVER PTSUNNY   36  29  75 SW3       29.85S
BAY BRIDGE APT   N/A     37  28  70 SW6       29.84R
LEONARDTOWN    PTSUNNY   36  30  80 W6        29.86S
DOVER          PTSUNNY   39  31  70 W7        29.81F
GEORGETOWN     CLOUDY    39  29  67 SW5       29.84F
EASTON         PTSUNNY   41  32  70 SW8       29.87F
CAMBRIDGE      PTSUNNY   41  32  70 SW5       29.84S
SALISBURY      PTSUNNY   42  30  62 SW7       29.85F
OCEAN CITY     PTSUNNY   40  29  64 NW6       29.86S
WALLOPS ISLAND MOSUNNY   40  32  73 NW5       29.87F
ACCOMACK*      SUNNY     39  30  70 W5        29.87F
$$

NCZ012>017-030>032-251500-
NORTH CENTRAL AND EASTERN NORTH CAROLINA

CITY           SKY/WX    TMP DP  RH WIND       PRES   REMARKS
ROANOKE RAPIDS FAIR      36  32  87 SW3       29.94S
RALEIGH        MOSUNNY   37  28  70 SW5       29.94R
ELIZABETH CITY SUNNY     39  30  70 W8        29.94R
AHOSKIE*       SUNNY     36  30  79 CALM      29.95R
EDENTON*       SUNNY     40  32  71 W6        29.95R
CURRITUCK*     SUNNY     38  29  72 W5        29.94R
KILL DEVIL HLS SUNNY     42  32  69 W7        29.93R
MANTEO         SUNNY     43  32  65 W6        29.94S
CAPE HATTERAS  SUNNY     44  32  62 NW9       29.96R
TARBORO*       FAIR      38  31  76 W5        29.96S
GOLDSBORO      SUNNY     37  36  96 SW2       29.96R
WASHINGTON     SUNNY     38  31  74 W5        29.97R
GREENVILLE     SUNNY     41  32  70 W3        29.98R
NEW BERN       SUNNY     42  31  64 W6        29.99R
WILMINGTON     SUNNY     41  35  79 NW5       30.00R
$$

VAZ048-251500-
ELSEWHERE

CITY           SKY/WX    TMP DP  RH WIND       PRES   REMARKS
HARRISBURG PA  CLOUDY    37  29  72 SW13      29.78R
BALTIMORE      CLOUDY    40  27  59 SW8       29.82R
ANNAPOLIS      PTSUNNY   38  27  64 VRB3      29.83S
ANDREWS AFB    PTSUNNY   36  28  73 W7        29.83R
PHILADELPHIA   PTSUNNY   38  29  70 SW17      29.80R
HENDERSON NC   SUNNY     39  28  64 SW3       29.93R
GREENSBORO     PTSUNNY   35  28  75 SW7       29.90S
ROCKY MOUNT    SUNNY     38  30  73 SW3       29.95S
$$

VAZ100-251500-
MARINE

STATION/POSITION TIME  TEMP    WIND        PRES    WAVE   SWELL
                       AIR SEA DIR/SP/G            HT/PER HT/PER
                 (UTC) (F)     (DEG/KT/KT) (MB)    (FT/S) (FT/S)
BRANDYWINE LGT   1400   39 37  250/ 15/ 17 1010.2F
CAPE MAY NJ      1400   38 37  250/ 14/ 17 1009.9S
LEWES DE         1400   40 38  260/  9/ 12 1010.4F
15NM E FENWICK I 1400   40 42              1010.4R   4/ 4
OCEAN-CITY-INLET 1400   40 38  300/  5/  6 1010.7F
WACHAPREAGUE VA  1400   40 40  270/  4/  5 1011.5F
THOMAS POINT MD  1400   36 37  200/  7/  8 1011.5R
GOOSES REEF MD   1400   38     VRB  6/  6  1009.7S
COVE POINT MD    1400   37     250/  5/  7 1010.5F
SOLOMONS ISLAND  1400      38                N/A
BISHOPS HEAD MD  1400   37 36  280/  2/  5 1010.4S
PINEY POINT MD   1400          340/  5/  6   N/A
POTOMAC MD       1400   37     290/  4/  6 1010.0F
CAMBRIDGE MD     1400   39 36  210/  4/  6 1010.6R
LEWISETTA VA     1400   36 37  260/ 10/ 11 1011.2R
RAPPAHANNOCK LGT 1400          230/  7/  8 1012.0R
STINGRAY PT      1400   38     240/  8/ 10 1012.2R
YORK RVR RNG VA  1400   39     230/  7/  8 1011.6R
YORKTOWN VA      1400   39 40  220/  4/  5 1012.2
JAMESTOWN VA     1400   38     270/  6/  8   N/A
DOMINION TERM VA 1400   38     240/  6/  6 1012.9R
KIPTOPEKE VA     1400      45  270/  5/  7   N/A
CHES BAY BRIDGE  1400   39 41  200/  9/  9 1012.4R
CAPE HENRY VA    1400   38     220/  6/  9 1011.6R
CHESAPEAKE LGHT  1300   42     280/ 13/ 14 1013.3R
WILLOUBY STN VA  1400   39     240/ 10/ 11 1013.2R
S CRANEY ISL VA  1400          210/  5/  7 1013.1R
CAPE HENRY BUOY  1400      45                N/A     3/11   2/11
1ST LANDING BUOY 1400   40     230/  8/  8 1012.2R
CAPE CHARLES BUO 1400      43                N/A     2/10   2/10
OFFSHORE WE BUOY 1400      47                N/A     4/11   3/11
64NM E OF VA BCH 1400   45 52  330/ 17/ 21 1012.2R   6/ 6   2/11
DUCK PIER NC     1400   40 43  300/  9/ 12 1012.7R
44100 DUCK FRF   1400      45                N/A     4/10   2/11
44056 DUCK FRF   1400      43                N/A     3/11   2/11
OREGON INLET NC  1400   42 47  290/  7/  9 1013.7S
HATTERAS NC      1400   44 53  310/ 14/ 16 1014.9R


USA.gov is the U.S. government's official web portal to all federal, state and local government web resources and services.